Voltar ao catálogo

STARLINK-11131

AtivoComunicaçõesVLEO
NORAD 59756·PAYLOAD·🇺🇸 United States

Lançado May 14, 2024 de Vandenberg Space Force Base

Loading…

Próximas Passagens (próximas 24 horas)

TLE

AtualizadoSource: CelesTrak SupGP

Época: Sep 14, 2026, 21:13 UTC

1 59756C 24091D   26257.88451389 -.00010743  00000+0 -88450-4 0  2578
2 59756  53.1572 353.7652 0001070  80.3222  17.8805 15.69727642    12

Acompanhe STARLINK-11131 em tempo real com AllMySat

Download on the App Store